Location: George Washington National Forest Helicopter Landing Site
(38.6463°N, 79.0851°W)
Time: 13:41:23
(UTC-04:00)

Tiros 1 despin weight - Pass Details

Date: 28 August 2019
Orbit: 594 x 643 km, 48.2° (Epoch: 14 October)

Event Time Altitude Azimuth Distance (km) Brightness Sun altitude
Rises 23:39:22 0° 271° (W) 2,822 ? -36.7°
Enters shadow 23:40:19 - 274° (W) 2,472 ? -36.8°
Reaches altitude 10° 23:41:52 10° 282° (WNW) 1,924 - -37.0°
Maximum altitude 23:45:47 30° 344° (NNW) 1,070 - -37.4°
Drops below altitude 10° 23:49:44 10° 47° (NE) 1,945 - -37.7°
Sets 23:52:17 0° 58° (ENE) 2,858 - -37.9°
